Rock Hill, SC

7:30 AM EDT on September 20, 2017 (GMT -0400)
Rock Hill-York County-Bryant

Weather History for KUZA - December, 2012

Change the Weather History Date:

Saturday, December 15, 2012

  Actual Average Record
Temperature  
Mean Temperature 46 °F -  
Max Temperature 59 °F 54 °F 75 °F (1948)
Min Temperature 34 °F 35 °F 12 °F (2010)
Degree Days  
Heating Degree Days 18    
Moisture  
Dew Point 33 °F    
Average Humidity 63    
Maximum Humidity 97    
Minimum Humidity 27    
Precipitation  
Precipitation 0.00 in - - ()
Sea Level Pressure  
Sea Level Pressure 30.19 in    
Wind  
Wind Speed 1 mph (SSW)    
Max Wind Speed 8 mph    
Max Gust Speed -    
Visibility 9 miles    
Events      
Averages and records for this station are not official NWS values.
T = Trace of Precipitation, MM = Missing Value Source: NWS Daily Summary

Daily Weather History Graph

Daily Weather History Graph

Search for Another Location

Airport or City:

Trip Planner

Search our weather history database for the weather conditions in past years. The results will help you decide how hot, cold, wet, or windy it might be!

Date:

Astronomy

Dec. 15, 2012 Rise Set
Actual Time 7:25 AM EST 5:14 PM EST
Civil Twilight 6:57 AM EST 5:42 PM EST
Nautical Twilight 6:25 AM EST 6:14 PM EST
Astronomical Twilight 5:54 AM EST 6:44 PM EST
Moon 9:20 AM EST (12/15) 8:11 PM EST (12/15)
Length of Visible Light 10h 45m
Length of Day
9h 49m
Waxing Crescent, 8% of the Moon is Illuminated
Dec 15
Waxing Crescent
Dec 20
First Quarter
Dec 28
Full
Jan 4
Last Quarter
Jan 11
New

Hourly Weather History & Observations

Time (EST) Temp. Dew Point Humidity Pressure Visibility Wind Dir Wind Speed Gust Speed Precip Events Conditions
12:54 AM 34.0 °F 30.9 °F 89% 30.27 in 9.0 mi Calm Calm - N/A   Clear
1:54 AM 35.1 °F 32.0 °F 89% 30.25 in 8.0 mi Calm Calm - N/A   Clear
2:54 AM 37.0 °F 33.1 °F 86% 30.23 in 9.0 mi Calm Calm - N/A   Clear
3:54 AM 36.0 °F 34.0 °F 93% 30.23 in 8.0 mi Calm Calm - N/A   Clear
4:54 AM 36.0 °F 35.1 °F 97% 30.22 in 8.0 mi Calm Calm - N/A   Clear
5:54 AM 37.0 °F 34.0 °F 89% 30.25 in 9.0 mi Calm Calm - N/A   Clear
6:54 AM 39.0 °F 35.1 °F 86% 30.25 in 8.0 mi Calm Calm - N/A   Clear
7:54 AM 37.9 °F 35.1 °F 89% 30.26 in 7.0 mi Calm Calm - N/A   Clear
8:54 AM 41.0 °F 39.0 °F 93% 30.28 in 5.0 mi Calm Calm - N/A   Clear
9:54 AM 44.1 °F 36.0 °F 73% 30.28 in 5.0 mi Calm Calm - N/A   Haze
10:54 AM 48.9 °F 35.1 °F 59% 30.26 in 5.0 mi Calm Calm - N/A   Haze
11:54 AM 52.0 °F 35.1 °F 53% 30.22 in 9.0 mi ESE 4.6 mph - N/A   Clear
12:54 PM 55.0 °F 32.0 °F 42% 30.21 in 10.0 mi SW 4.6 mph - N/A   Partly Cloudy
1:54 PM 59.0 °F 30.0 °F 33% 30.16 in 10.0 mi WSW 8.1 mph - N/A   Clear
2:54 PM 59.0 °F 25.0 °F 27% 30.15 in 10.0 mi SSW 8.1 mph - N/A   Mostly Cloudy
3:54 PM 57.9 °F 25.0 °F 28% 30.14 in 10.0 mi South 4.6 mph - N/A   Overcast
5:54 PM 55.0 °F 27.0 °F 34% 30.13 in 10.0 mi South 3.5 mph - N/A   Mostly Cloudy
6:54 PM 55.0 °F 28.9 °F 37% 30.14 in 10.0 mi Calm Calm - N/A   Overcast
7:54 PM 54.0 °F 30.9 °F 41% 30.14 in 10.0 mi Calm Calm - N/A   Overcast
8:54 PM 52.0 °F 35.1 °F 53% 30.14 in 10.0 mi SSW 4.6 mph - N/A   Overcast
9:54 PM 52.0 °F 35.1 °F 53% 30.11 in 10.0 mi Calm Calm - N/A   Clear
10:51 PM 51.8 °F 37.4 °F 58% 30.10 in 10.0 mi SSW 3.5 mph - N/A   Mostly Cloudy
10:54 PM 51.1 °F 37.0 °F 59% 30.10 in 10.0 mi Calm Calm - N/A   Mostly Cloudy
11:54 PM 52.0 °F 39.9 °F 63% 30.10 in 10.0 mi WSW 4.6 mph - N/A   Overcast